Regional Weather Roundup
Issued by NWS

Home | Current Version | Previous Version | Text Only | Print | Product List | Glossary On
Versions: 1 2 3 4 5 6 7 8 9 10 11 12 13 14 15 16 17 18 19 20 21 22 23 24 25 26 27 28 29 30 31 32 33 34 35 36 37 38 39 40 41 42 43 44 45 46 47 48 49 50
000
ASUS43 KMPX 222010
RWRMN
WEATHER ROUNDUP FOR MINNESOTA
NATIONAL WEATHER SERVICE TWIN CITIES/CHANHASSEN MN
200 PM CST MON DEC 22 2014


NOTE: "FAIR" INDICATES FEW OR NO CLOUDS BELOW 12,000 FEET WITH NO
SIGNIFICANT WEATHER AND/OR OBSTRUCTIONS TO VISIBILITY. N/A MEANS
CURRENT SKY AND/OR WEATHER CONDITIONS ARE NOT AVAILABLE.

MNZ060>063-068>070-222100-
   Twin Cities Metro

CITY           SKY/WX    TMP DP  RH WIND       PRES   REMARKS
TWIN CITIES    LGT RAIN  35  33  92 E13       29.60S FOG     WCI  26
ST PAUL        LGT RAIN  35  34  96 SE9       29.62S FOG     WCI  28
CRYSTAL        LGT RAIN  37  34  89 SE9       29.58F FOG
BLAINE         LGT RAIN  37  37 100 E10       29.60S
LAKEVILLE      LGT RAIN  34  34 100 E12       29.58F WCI  25
EDEN PRAIRIE   LGT RAIN  36  34  92 SE13      29.57F FOG
SOUTH ST PAUL  LGT RAIN  36  34  95 SE5       29.60F
LAKE ELMO      DRIZZLE   36  34  93 SE7       29.62S
$$
MNZ001>005-007-008-013>017-022>024-027-028-222100-
   Northwest Minnesota

CITY           SKY/WX    TMP DP  RH WIND       PRES   REMARKS
BEMIDJI        CLOUDY    35  34  96 SE10      29.56S WCI  27
HALLOCK        CLOUDY    36  34  93 NE7       29.58R FOG
ROSEAU         CLOUDY    36  30  80 E6        29.60S HAZE
WARROAD        CLOUDY    34  30  86 E7        29.62R FOG     WCI  28
THIEF RVR FALL CLOUDY    36  36 100 E7        29.56S
CROOKSTON      MIX PCPN  37  36  93 E8        29.55S
FOSSTON        CLOUDY    36  36 100 SE7       29.55R
DETROIT LAKES  CLOUDY    36  36 100 SE12      29.53R FOG
MOORHEAD       CLOUDY    39  39 100 E8        29.51R FOG
PARK RAPIDS    MIX PCPN  36  34  92 SE6       29.55R
MAHNOMEN       CLOUDY    37  36  95 SE9       29.53R
$$
MNZ006-009>011-018-025>026-222100-
   North Central Minnesota

CITY           SKY/WX    TMP DP  RH WIND       PRES   REMARKS
BAUDETTE       CLOUDY    35  33  92 E7        29.61R WCI  29
FLAG ISLAND    CLOUDY    34  34 100 E6        29.63R FOG     WCI  29
INTL FALLS     LGT RAIN  35  33  92 SE7       29.64S WCI  29
WASKISH        CLOUDY    37  36  93 CALM      29.60R
BIG FORK       LGT RAIN  36  34  93 SE5       29.62S
LONGVILLE      DRIZZLE   34  34 100 E5        29.58S WCI  30
GRAND RAPIDS   CLOUDY    34  32  93 SE7       29.61S WCI  28
CRANE LAKE     CLOUDY    34  34 100 CALM      29.68S
ORR            LGT RAIN  34  32  93 CALM      29.63S
COOK           RAIN      34  34 100 E5        29.65S WCI  30
WALKER         DRIZZLE   34  33  96 E5        29.57S WCI  30
$$
MNZ012-019>021-037-222100-
   Northeast Minnesota

CITY           SKY/WX    TMP DP  RH WIND       PRES   REMARKS
DULUTH         SNOW      34  32  92 SE14      29.64F VSB 1/4 WCI  25
ELY            DRIZZLE   34  34 100 SE7       29.67S WCI  28
HIBBING        CLOUDY    35  32  88 SE12      29.64S FOG     WCI  27
EVELETH        CLOUDY    34  34 100 SE6       29.66S WCI  29
DULUTH HARBOR  DRIZZLE   36  34  93 CALM      29.70S
TWO HARBORS    CLOUDY    37  32  81 E8        29.67F VSB 1/2
SILVER BAY     LGT SNOW  36  34  93 NE6       29.68F VSB 3/4
GRAND MARAIS     N/A     37  35  92 SE5       29.76S
G MARAIS ARPRT DRZL/FOG  30  28  93 SE3       29.72R VSB<1/4
$$
MNZ029>031-032-039>041-046>048-054>057-064-222100-
   West Central Minnesota

CITY           SKY/WX    TMP DP  RH WIND       PRES   REMARKS
FERGUS FALLS   CLOUDY    37  36  93 SE12      29.52S
WHEATON        LGT RAIN  36  36 100 E17       29.47S
MORRIS         LGT RAIN  37  36  93 SE16      29.46S
ALEXANDRIA     CLOUDY    35  33  92 E15G24    29.51S WCI  25
ELBOW LAKE     LGT RAIN  36  35  97 E13       29.48S
WADENA         DRIZZLE   36  34  93 SE9       29.53S
GLENWOOD       DRIZZLE   36  34  93 E15       29.51S
APPLETON       DRIZZLE   39  37  93 SE14      29.46S
BENSON         LGT RAIN  37  36  93 SE14G20   29.48S
ORTONVILLE     LGT RAIN  37  36  93 SE15      29.44S
MADISON        LGT RAIN  41  39  93 SE14      29.44S
WILLMAR        LGT RAIN  37  36  93 SE15      29.51S
$$
MNZ033>034-036-042>043-049>051-058-059-222100-
   Central Minnesota

CITY           SKY/WX    TMP DP  RH WIND       PRES   REMARKS
ST CLOUD       LGT RAIN  37  34  89 E9        29.56F FOG
SAUK CENTRE    RAIN      34  33  97 E12       29.53S WCI  25
PAYNESVILLE    LGT RAIN  32  32 100 E9G17     29.53S WCI  25
AITKIN         MIX PCPN  37  32  81 E7        29.59S
PINE RIVER     DRIZZLE   34  34 100 SE10      29.62R WCI  26
BRAINERD       LGT RAIN  35  34  96 SE8       29.58S FOG     WCI  29
STAPLES        DRIZZLE   36  34  93 E7        29.55S
LONG PRAIRIE   MIX PCPN  32  32 100 E12       29.54S WCI  23
LITTLE FALLS   MIX PCPN  34  32  93 SE9G16    29.57S WCI  26
LITCHFIELD     DRIZZLE   36  36 100 SE15      29.54S
BUFFALO        DRIZZLE   35  33  92 E10       29.58S WCI  27
MAPLE LAKE     DRIZZLE   36  35  97 E9        29.57S
$$
MNZ037-044-045-052-053-222100-
   East Central Minnesota

CITY           SKY/WX    TMP DP  RH WIND       PRES   REMARKS
PRINCETON      LGT RAIN  36  34  93 E8        29.59F
MORA           CLOUDY    32  32 100 E7        29.63S WCI  26
CAMBRIDGE      LGT RAIN  37  30  75 E6        29.59S
RUSH CITY      CLOUDY    35  34  95 E6        29.63S FOG     WCI  30
MOOSE LAKE     LGT RAIN  34  32  93 SE5       29.62S WCI  30
HINCKLEY       LGT RAIN  34  34 100 E8        29.64S WCI  27
CLOQUET        FOG       34  34 100 E8        29.64S VSB 1/4 WCI  27
MCGREGOR       CLOUDY    34  34 100 SE8       29.62S WCI  27
$$
MNZ071>073-080-081-089-090-097-098-222100-
   Southwest Minnesota

CITY           SKY/WX    TMP DP  RH WIND       PRES   REMARKS
MONTEVIDEO     DRIZZLE   37  37 100 S15       29.47S
GRANITE FALLS  LGT RAIN  38  37  97 E15       29.48S
CANBY          LGT RAIN  38  38  98 SE9       29.43S
MARSHALL       CLOUDY    39  36  87 SE13      29.44S
REDWOOD FALLS  LGT RAIN  39  37  92 SE15      29.48F FOG
OLIVIA         DRIZZLE   37  36  93 SE14      29.49S
PIPESTONE      DRIZZLE   37  37 100 S9        29.40S
WINDOM         RAIN      37  37 100 SE10      29.46S
WORTHINGTON    CLOUDY    39 -11  11 SE13      29.43F
JACKSON        LGT RAIN  37  36  93 SE15      29.47S
TRACY          DRIZZLE   39  38  95 SE13      29.45S
SLAYTON        CLOUDY    37  37 100 SE14      29.43F
$$
MNZ065>067-074>077-082>085-091>093-222100-
   South Central Minnesota

CITY           SKY/WX    TMP DP  RH WIND       PRES   REMARKS
MANKATO        CLOUDY    37  32  81 SE18      29.53F
NEW ULM        DRIZZLE   37  37 100 SE12      29.51S
FAIRMONT       CLOUDY    37  34  87 SE16      29.49S
GLENCOE        LGT RAIN  37  37  99 E13       29.54F
FARIBAULT      LGT RAIN  36  34  93 E12G18    29.57F
OWATONNA       LGT RAIN  36  34  93 SE13      29.56F
WASECA         LGT RAIN  34  34 100 SE17G23   29.56F WCI  23
ALBERT LEA     LGT SNOW  34  34 100 SE14      29.54F WCI  24
$$
MNZ078>079-086>088-094>096-222100-
   Southeast Minnesota

CITY           SKY/WX    TMP DP  RH WIND       PRES   REMARKS
ROCHESTER      LGT RAIN  36  33  89 SE14      29.59S FOG
RED WING       DRIZZLE   37  36  93 SE13      29.61F
STANTON        LGT RAIN  37  34  88 SE9       29.58S
DODGE CENTER   LGT RAIN  36  36 100 SE14      29.57F
WINONA         DRIZZLE   37  34  87 SE10      29.65S
AUSTIN         LGT RAIN  36  34  93 SE14      29.56F
PRESTON        CLOUDY    35  33  92 SE12      29.60F FOG     WCI  27
$$
ABBREVIATIONS USED IN REMARKS
   TC - TEMPERATURES IN CELSIUS
  WCI - WIND CHILL INDEX
   HX - HEAT INDEX
  VSB - VISIBILITY
$$



USA.gov is the U.S. government's official web portal to all federal, state and local government web resources and services.